Theta_e
307 307 310 312 312 313 313 313 313 314 314 311 309 308 306 305 304 302 301 299 298 296 296 295 294 294 294 293 293 293 294 294 293 294 293 292 291 291 292 293 295 294 293 295 295 297 299 301 302 302 301 301 301 301 300 301 300 301 301 301 300 300 299 296 295 296 300 302 302 302 302 302 300 300 299 299 298 296 295 296 297 297 297 297 297
310 311 311 312 312 312 312 311 311 309 307 305 303 302 301 300 298 297 296 293 295 295 294 295 293 293 293 292 291 291 292 295 290 292 290 290 291 294 292 290 290 290 290 293 292 295 297 299 300 299 299 300 301 300 300 299 298 297 296 296 298 297 298 296 296 296 295 299 298 300 300 300 298 298 297 298 298 298 296 296 296 296 296 297 296
308 308 307 307 306 306 305 303 302 300 299 298 297 296 295 292 293 295 294 294 294 293 293 292 292 292 291 290 292 291 291 289 288 290 291 290 291 291 289 290 292 292 292 292 293 293 296 296 297 297 298 297 298 298 297 296 295 295 294 294 294 295 295 295 295 294 295 296 299 298 298 298 298 298 297 297 297 297 297 297 297 296 295 295 295
304 304 303 301 301 299 298 297 297 296 295 294 293 292 293 292 292 293 292 294 292 292 291 291 292 291 291 290 289 288 289 289 289 288 290 289 290 291 289 290 290 291 291 291 291 291 293 294 295 295 295 296 296 295 295 294 294 294 294 295 295 295 295 295 295 295 295 294 296 297 297 297 298 298 298 298 298 297 297 296 296 295 295 294 294
298 297 296 295 295 295 294 294 294 293 292 292 291 291 291 291 291 291 292 291 290 292 292 291 292 292 293 291 291 289 288 288 290 289 287 286 287 288 287 287 288 289 289 289 290 290 290 291 293 293 294 295 295 294 294 294 294 293 294 294 294 295 295 295 294 294 294 293 295 297 297 297 298 298 298 297 297 297 297 296 296 296 296 296 295
295 294 294 293 292 292 291 292 291 291 291 291 290 290 290 291 290 290 290 291 291 290 290 290 290 289 288 288 288 287 286 287 288 287 286 286 287 287 286 286 287 287 288 288 288 289 290 291 292 292 294 294 294 294 294 293 294 294 293 293 293 293 293 294 294 294 294 294 294 294 296 295 295 296 296 296 295 295 295 296 296 296 294 294 294
293 293 292 292 291 290 291 290 290 290 289 289 290 290 290 289 290 290 289 289 290 290 289 289 288 288 288 288 288 288 288 287 287 286 286 286 286 286 286 286 286 286 287 288 288 289 290 291 291 292 292 292 293 293 293 293 293 292 292 293 293 292 292 292 292 292 292 292 292 293 293 294 294 293 295 295 295 295 294 294 293 295 295 293 293
292 291 291 291 290 290 289 288 289 289 289 290 290 289 289 290 289 289 289 289 289 288 288 288 286 286 286 287 287 286 286 286 287 287 287 287 286 285 286 286 287 287 287 288 288 288 289 289 290 291 291 292 291 292 292 291 292 292 292 292 292 292 291 292 291 291 291 291 291 291 292 292 293 294 294 293 293 293 293 292 291 292 293 293 292
291 291 291 290 289 289 289 289 289 289 289 289 289 289 288 288 288 288 288 288 288 286 286 287 287 287 286 286 286 286 286 286 287 287 287 287 285 286 286 287 286 286 287 287 287 288 288 287 288 289 289 289 289 290 290 291 291 290 291 292 291 291 291 291 291 291 290 290 290 291 291 291 291 291 291 291 291 291 293 293 292 293 293 293 294
290 290 289 288 288 288 287 287 287 287 288 287 287 287 287 286 286 286 286 286 286 286 286 286 286 286 286 285 284 286 286 286 288 291 292 289 287 287 286 286 286 286 286 286 286 286 287 287 288 288 287 287 288 289 290 290 291 290 290 290 290 290 290 289 289 290 289 289 289 289 289 289 290 290 290 291 292 293 292 292 290 292 292 291 292
289 288 287 287 287 286 286 286 286 286 286 286 286 286 286 286 285 285 285 285 285 285 285 285 285 285 285 284 284 285 286 287 290 292 292 292 288 286 286 286 285 285 285 285 285 286 286 287 286 287 287 287 288 289 290 291 291 291 291 291 290 290 289 288 289 289 289 288 289 289 289 288 290 291 291 291 292 292 291 292 291 291 290 289 288
287 287 286 286 286 285 285 285 285 285 285 284 284 284 284 285 284 284 284 284 284 284 284 284 284 284 284 284 284 285 285 288 291 291 291 292 291 288 286 285 285 285 285 285 285 285 285 286 286 286 286 287 287 287 288 289 290 290 291 291 291 291 292 290 289 288 289 288 288 289 289 289 290 290 290 290 290 291 291 290 290 289 288 288 289
286 285 285 285 285 285 284 284 284 284 284 283 283 284 284 284 284 283 283 282 282 284 283 283 283 283 284 284 284 284 284 288 290 291 291 291 291 289 286 284 285 284 284 284 284 284 284 285 285 286 286 286 286 287 287 287 288 289 289 289 289 290 291 292 292 291 291 289 288 288 289 289 289 290 291 290 291 289 289 289 289 289 289 288 288
285 284 284 284 284 283 283 283 283 283 283 283 283 283 283 283 282 282 282 282 283 283 282 282 283 283 283 283 283 284 285 287 290 290 290 290 291 290 284 284 284 284 283 284 284 283 284 284 284 284 285 284 285 285 286 286 286 286 286 286 287 288 289 290 290 290 290 290 289 288 290 291 289 290 291 292 290 288 288 288 289 288 288 288 289
284 283 283 283 283 283 283 282 282 282 282 282 282 282 282 282 282 282 282 282 282 282 282 282 283 282 283 283 284 284 285 288 289 289 290 290 290 289 284 284 284 283 283 283 283 283 283 284 283 283 284 284 284 286 286 286 286 286 286 286 286 287 287 287 288 288 289 290 290 290 291 291 291 292 292 292 291 291 290 289 289 289 289 290 289
282 282 282 282 282 282 282 282 281 281 281 281 281 281 281 281 281 281 281 280 280 281 281 282 283 283 283 284 284 283 284 287 289 289 289 289 288 285 283 283 282 282 282 282 282 282 282 283 283 283 283 283 285 287 287 286 285 284 284 284 284 285 286 287 289 289 288 289 289 290 290 291 292 291 291 292 291 291 291 291 290 289 287 286 286
281 281 280 280 281 281 281 281 280 280 280 280 280 280 280 280 280 280 280 281 281 282 282 282 283 283 283 283 282 282 282 285 288 288 287 287 286 283 282 282 281 281 281 281 282 282 282 282 283 283 283 282 284 286 287 286 284 284 283 283 284 284 285 286 288 289 289 289 290 290 290 291 291 291 291 291 290 290 289 287 286 288 286 285 285
279 279 279 279 279 279 279 279 279 279 279 279 279 279 279 279 280 279 280 280 280 281 282 282 283 282 281 280 281 280 280 282 286 285 286 286 285 282 281 281 281 281 281 281 282 282 282 283 282 282 281 282 285 286 287 285 284 283 283 283 283 283 284 285 285 286 288 288 288 289 289 290 290 290 290 290 291 290 287 284 286 287 284 285 284
278 278 277 277 277 277 277 277 277 277 277 277 277 278 279 278 277 278 279 279 279 279 280 280 280 279 278 279 280 279 279 280 284 284 285 285 284 281 281 280 280 280 280 280 281 281 281 282 282 283 283 283 286 286 286 285 284 283 283 283 282 282 283 284 284 284 285 285 285 286 286 287 287 287 287 289 289 288 288 287 287 285 284 284 284
276 276 276 276 276 276 276 275 275 276 276 276 277 277 276 277 277 277 277 277 277 277 277 277 277 277 277 277 278 279 278 278 280 283 284 285 285 282 280 279 279 279 280 280 280 280 281 281 282 283 284 285 285 286 286 286 284 283 283 282 282 281 284 284 285 285 284 285 285 285 285 286 286 287 287 287 287 288 288 288 287 286 285 284 285
276 275 275 275 275 274 274 274 274 275 275 275 276 276 276 275 275 275 275 275 275 275 276 276 276 276 276 277 278 278 279 277 278 282 283 284 284 283 280 280 280 280 280 280 280 279 279 280 280 282 284 284 285 285 285 286 285 284 283 282 283 284 286 285 285 285 285 285 285 285 285 286 286 286 286 286 286 287 287 287 287 286 285 284 284
275 274 274 273 273 272 273 273 273 274 273 274 274 274 274 274 275 275 274 274 274 274 274 275 275 275 275 277 276 276 276 278 276 280 282 283 283 283 281 280 281 280 279 279 279 279 279 279 280 282 283 284 285 285 286 286 286 284 283 285 286 287 285 285 285 285 285 285 284 284 284 284 284 285 285 285 286 286 286 287 287 287 287 286 285
273 273 272 272 272 271 271 272 273 272 273 272 272 273 273 273 274 275 273 273 273 273 273 273 273 273 273 274 274 274 275 275 279 278 281 282 282 282 282 281 282 280 279 278 278 278 279 280 280 282 284 284 285 285 286 286 285 284 286 286 287 287 286 285 285 284 284 284 284 284 284 284 284 284 285 285 286 286 287 286 286 287 287 287 287
272 271 271 270 270 271 270 271 271 271 272 273 274 273 273 273 273 273 272 272 271 271 271 270 271 271 271 272 273 274 275 275 277 279 279 280 281 282 282 282 282 280 279 278 279 279 279 280 281 284 284 285 285 285 285 285 284 286 286 287 287 286 285 284 284 284 284 284 283 283 284 285 285 285 285 285 286 285 286 286 286 286 286 286 287
270 270 270 270 270 270 271 271 272 272 272 273 273 272 271 270 271 269 270 269 270 270 270 270 269 269 270 270 271 272 273 273 273 276 279 279 280 281 281 281 281 281 278 278 279 280 281 283 284 284 284 285 285 285 284 284 285 285 286 286 285 284 284 284 284 284 283 283 283 283 284 284 284 285 285 285 286 286 285 286 286 286 286 286 286
270 270 270 270 270 271 271 271 271 271 271 271 270 270 270 270 270 268 268 268 267 267 267 268 268 269 269 270 271 272 272 271 273 275 277 278 278 279 279 280 279 280 280 279 281 282 283 283 284 284 283 283 282 282 282 282 284 285 285 284 284 284 284 284 283 283 282 282 283 283 283 284 284 285 285 285 284 284 284 284 284 284 284 284 284
270 269 269 269 269 269 269 269 269 269 268 268 268 268 268 267 267 268 266 266 266 267 267 268 269 271 271 271 271 272 272 272 274 276 277 277 277 277 277 278 279 279 279 279 280 280 280 281 281 282 282 282 282 282 282 282 281 281 282 282 282 283 283 283 283 282 282 282 282 282 283 283 284 283 283 283 282 283 284 283 283 282 283 283 282
268 268 268 268 268 268 269 270 268 267 267 266 266 266 265 265 266 266 266 266 266 267 266 266 268 270 271 271 271 271 272 272 274 275 275 276 276 277 277 277 277 277 277 278 278 278 278 280 280 279 279 279 279 279 279 279 279 279 279 280 281 281 282 283 284 283 282 283 282 282 282 282 281 281 281 281 281 282 283 282 281 281 282 282 280
268 267 267 267 268 268 267 267 266 266 264 264 263 264 264 264 265 266 266 266 267 265 264 266 268 269 270 271 271 271 272 272 274 277 276 278 276 276 275 276 276 276 277 279 277 276 276 275 276 276 276 276 276 276 276 275 276 277 278 278 278 279 281 281 280 280 281 281 280 281 281 281 281 281 281 281 281 281 282 281 282 281 281 281 279
267 266 266 266 266 266 266 265 264 264 263 263 263 265 273 274 270 266 265 275 277 278 276 270 271 271 271 270 271 272 272 274 277 277 277 277 278 278 277 277 278 277 277 278 275 272 272 272 272 273 273 274 273 272 272 272 273 273 274 276 277 278 279 279 280 280 281 281 281 280 280 281 280 280 280 280 280 281 281 281 280 280 279 278 277
266 265 265 265 266 265 264 264 264 263 262 263 262 265 264 269 275 275 275 275 276 277 277 277 277 276 274 269 271 276 276 276 276 276 277 277 277 277 276 276 276 277 276 273 269 269 268 268 269 270 271 271 271 271 271 270 270 270 271 272 273 274 276 277 279 279 280 280 280 280 281 280 280 280 279 279 279 279 279 279 279 279 278 277 276
265 264 263 264 265 264 263 264 264 263 263 262 263 263 263 263 262 271 274 275 276 276 276 276 276 276 276 275 273 271 274 275 276 276 276 276 276 276 275 275 275 275 274 272 266 266 267 267 267 268 269 269 269 270 269 269 269 269 269 269 269 271 273 274 276 278 279 279 279 279 280 280 279 279 279 278 278 278 277 277 277 277 277 276 276
263 263 263 264 264 265 264 264 264 263 262 262 263 262 262 261 261 260 265 272 274 274 274 274 274 274 275 275 275 274 274 274 275 275 275 275 275 274 273 273 273 273 271 266 264 264 265 266 265 266 267 267 268 268 268 268 268 268 268 268 268 268 270 272 275 277 278 278 277 277 278 279 279 278 278 278 277 276 276 276 276 276 276 275 275
262 263 263 263 263 264 264 263 263 262 263 262 262 261 261 260 259 260 261 261 264 268 271 272 273 273 273 273 273 273 273 274 274 274 274 274 274 273 271 268 271 271 269 264 263 263 264 264 264 265 265 266 266 267 266 266 266 266 267 267 267 268 268 271 273 274 275 275 275 276 277 277 277 277 276 277 277 276 276 276 276 275 275 275 273
261 264 264 263 262 263 263 263 262 262 262 262 262 260 260 261 262 261 261 261 261 261 261 263 268 272 270 269 272 272 272 273 273 273 273 273 273 272 268 263 262 263 264 264 263 263 263 263 263 263 264 264 265 265 265 265 265 265 265 266 266 266 267 269 270 271 271 272 273 274 274 275 275 276 276 275 275 275 275 275 275 275 274 274 272
263 263 263 263 262 262 262 261 261 261 260 261 260 259 261 262 262 261 262 262 260 259 259 259 260 267 270 269 270 271 271 272 271 271 271 271 271 269 260 261 261 261 262 262 262 263 263 262 262 262 262 263 264 264 264 264 264 264 265 265 265 265 266 267 268 268 268 269 270 272 273 273 274 274 275 275 275 275 275 275 275 275 275 273 272
261 262 262 261 260 261 260 259 259 260 263 262 261 260 262 262 262 260 260 259 260 259 257 257 259 261 264 263 266 268 270 270 270 269 269 269 269 263 259 260 261 261 261 261 262 262 261 260 261 261 261 262 262 263 263 263 263 264 265 264 264 264 265 266 266 267 266 266 267 269 271 272 273 273 274 274 275 275 275 275 275 275 274 273 272
259 259 259 260 258 258 260 257 260 265 261 261 259 259 260 260 260 261 260 259 260 259 257 257 262 257 258 260 264 264 265 268 267 265 265 264 262 258 258 258 260 260 260 260 261 261 260 260 260 260 260 261 261 261 261 261 262 262 263 263 264 264 265 265 265 265 265 265 265 266 269 270 272 273 274 273 274 274 274 275 274 274 273 273 272
258 262 263 263 262 258 258 259 260 259 259 260 259 260 261 260 259 258 256 256 256 257 258 256 256 258 257 258 258 263 265 261 259 258 258 257 258 257 255 255 256 258 259 259 260 260 260 260 260 260 260 260 260 260 260 261 261 262 262 263 263 263 263 263 263 263 263 263 264 265 266 268 271 272 273 273 273 274 274 274 274 273 272 271 270
260 262 263 264 262 264 261 261 260 259 260 258 256 258 259 259 257 257 255 254 255 257 256 257 258 257 257 257 259 262 262 261 258 257 257 257 256 256 254 255 255 256 257 257 258 259 259 260 260 259 259 259 259 260 260 261 261 262 262 262 262 262 263 263 263 263 263 263 263 264 265 266 269 271 272 272 273 273 273 273 273 273 272 271 269
259 261 263 264 263 262 261 260 259 258 258 258 258 256 256 259 258 258 255 256 257 257 257 256 254 255 258 263 266 266 262 258 256 256 256 256 256 255 255 254 255 255 255 256 257 257 258 258 259 259 259 259 259 259 259 260 260 261 261 262 262 262 262 262 263 262 262 262 263 263 264 265 267 270 271 272 273 273 273 273 273 272 271 270 269
259 260 261 261 263 260 259 259 259 262 259 260 257 256 258 258 257 256 257 257 258 257 256 255 254 255 260 265 265 265 260 256 256 256 256 255 255 255 256 255 254 254 255 255 255 256 256 257 257 258 257 257 258 258 259 259 259 260 260 261 262 262 262 262 262 262 262 262 262 263 263 264 266 269 271 272 271 271 272 272 271 271 270 269 269
259 259 260 259 260 260 259 258 257 256 256 256 256 260 259 257 256 257 257 257 257 257 255 255 255 255 257 263 263 264 257 254 258 256 254 256 254 256 254 255 255 254 254 254 255 254 255 255 256 256 256 256 256 257 257 257 258 259 259 260 261 262 261 262 262 262 262 262 262 262 262 263 265 268 270 271 271 271 271 271 271 270 269 269 268
259 259 259 259 258 258 258 257 257 257 256 258 258 258 258 256 256 255 254 254 255 255 255 254 255 255 255 257 258 256 253 253 252 253 254 256 255 256 255 254 254 254 254 255 255 254 254 255 255 256 256 255 255 255 256 257 257 258 258 259 261 261 261 261 261 261 262 261 261 261 261 263 265 267 269 270 270 270 270 270 270 269 269 268 268
258 259 259 259 258 257 257 257 257 256 258 258 255 255 257 255 254 254 255 254 255 255 254 255 255 255 255 254 253 253 253 253 254 254 255 255 255 255 254 254 254 254 254 254 254 254 253 255 255 255 255 255 255 255 255 256 256 257 258 259 259 260 261 261 261 262 262 262 261 261 261 262 263 265 267 269 270 270 269 269 269 269 268 268 267
258 258 258 258 258 257 257 255 257 256 256 254 253 252 253 253 252 254 255 254 255 254 253 254 253 254 254 253 253 254 254 252 253 253 254 255 254 255 253 254 253 253 253 253 253 253 254 254 254 254 254 255 255 255 255 255 256 256 257 258 259 260 261 262 262 262 262 261 261 260 260 261 263 265 266 267 268 269 269 269 269 268 268 267 267
257 257 258 258 258 257 257 256 255 255 255 254 254 253 252 252 251 253 256 255 254 255 253 252 252 252 252 252 253 253 254 253 254 254 254 254 254 254 254 253 254 254 254 253 250 253 253 254 254 254 254 254 255 255 255 255 255 255 256 257 257 259 261 262 262 262 262 262 261 260 260 260 262 264 265 266 267 268 268 268 268 268 268 268 267
257 257 257 257 257 257 257 257 258 259 257 256 254 254 254 253 253 254 252 253 253 253 253 252 251 251 252 253 253 253 254 253 254 254 254 254 253 253 253 252 253 253 253 253 251 252 252 252 253 253 253 254 254 254 254 254 254 254 255 256 256 258 260 261 262 262 262 262 261 260 259 259 260 262 264 265 265 266 266 267 268 268 267 267 267
257 257 257 257 257 257 257 257 258 258 257 256 255 254 254 253 253 252 252 252 252 253 252 252 252 251 251 253 253 254 253 254 253 253 253 253 252 253 253 253 253 253 253 253 253 252 252 252 253 253 253 253 253 253 254 254 254 254 254 254 256 258 260 261 261 261 262 262 261 259 258 258 259 261 263 263 263 264 265 266 267 267 267 266 266
257 257 257 257 257 257 257 257 257 257 256 255 255 253 253 254 253 253 252 252 252 252 251 251 252 252 250 252 253 253 251 253 253 253 253 253 253 251 252 252 252 252 252 253 253 253 252 251 251 252 252 252 253 253 253 253 254 254 253 254 257 259 260 261 261 262 261 261 260 258 257 257 258 259 260 261 261 262 263 264 265 266 266 265 265
257 258 257 258 258 258 257 257 256 256 256 255 255 255 255 254 254 253 252 252 253 253 252 252 251 251 251 252 253 252 252 252 253 252 253 253 252 252 252 252 252 252 252 252 252 252 252 251 252 252 252 253 253 253 253 253 253 253 255 257 259 260 260 261 261 261 261 262 259 257 256 256 256 257 258 259 259 260 261 262 263 264 265 265 264
Wind_Speed
5 4 5 5 6 6 6 5 5 5 4 5 4 4 4 6 5 5 5 5 5 6 5 5 5 5 5 5 5 4 5 5 5 5 6 5 4 4 4 5 4 4 3 4 3 3 4 5 5 4 4 6 6 6 5 6 6 7 6 7 8 7 8 9 13 18 18 7 10 11 9 10 11 7 13 11 9 8 11 12 13 12 12 11 12
4 5 4 4 3 4 4 4 4 4 5 6 7 6 6 6 5 6 6 4 5 6 5 5 4 5 5 4 4 4 4 4 4 6 4 4 4 4 4 4 4 4 4 4 4 4 4 5 6 5 4 6 7 7 5 6 5 6 6 6 8 8 6 8 12 13 20 15 8 9 10 8 14 6 9 13 12 9 11 10 10 11 12 11 11
4 6 5 6 6 5 5 5 6 7 8 6 6 6 5 4 4 7 6 6 6 5 6 5 4 4 5 5 5 5 5 4 4 4 4 4 4 5 4 4 4 5 5 4 4 3 4 5 6 5 5 6 7 7 6 7 6 7 8 6 8 8 6 7 9 14 18 19 14 11 12 9 11 12 8 9 11 11 12 12 10 10 9 10 11
7 8 8 8 7 7 7 6 8 7 7 5 6 6 6 6 6 6 6 6 5 5 4 4 5 5 6 5 5 4 4 4 4 4 3 3 2 3 3 3 4 4 4 5 4 3 4 5 6 5 5 7 8 8 6 5 6 7 8 8 8 11 9 7 9 12 14 18 19 12 10 12 13 10 9 9 12 12 11 11 11 11 10 9 11
8 7 8 8 7 8 7 6 8 7 7 7 6 6 6 6 6 6 6 6 4 6 6 5 6 6 6 4 3 3 3 3 3 3 3 2 2 3 4 4 4 4 4 5 5 4 4 5 7 6 6 8 9 7 8 8 8 7 9 9 8 9 8 7 9 9 12 16 19 16 12 11 13 13 10 12 13 12 11 12 12 12 11 11 10
7 8 8 9 8 8 7 7 7 7 7 7 6 7 7 6 6 5 5 6 5 6 6 6 5 5 4 4 3 3 3 2 1 2 2 3 3 3 3 3 4 4 4 4 4 4 4 6 6 6 6 8 10 9 9 9 9 9 9 9 9 8 9 9 9 10 12 15 16 19 17 14 13 12 9 9 13 14 13 13 12 12 11 11 11
8 9 8 8 8 7 7 7 7 7 7 7 7 7 7 6 6 6 6 6 7 6 5 5 5 4 4 4 4 3 3 3 2 2 2 2 2 3 3 3 3 4 4 5 5 5 5 5 6 6 7 8 9 10 10 10 9 10 10 10 10 9 10 10 9 11 12 14 15 15 16 16 14 15 11 7 10 11 13 14 16 12 9 10 13
8 8 9 8 8 7 6 6 7 7 7 7 7 7 6 7 7 6 6 7 6 5 5 5 4 5 4 4 4 3 3 3 2 1 1 1 2 3 4 4 5 5 5 5 5 5 5 6 6 7 7 8 8 9 9 10 10 11 9 8 10 10 10 10 10 10 11 12 14 15 14 16 16 13 10 9 11 10 8 10 15 16 13 8 10
9 9 9 9 7 6 7 6 6 7 7 7 7 7 7 7 7 6 6 6 6 5 5 5 5 5 5 4 4 4 3 3 3 4 4 4 4 4 4 6 6 7 7 6 6 6 6 5 5 6 8 12 15 14 14 13 11 12 12 8 9 11 12 10 10 10 11 12 14 13 14 16 16 15 14 12 11 11 11 9 13 14 13 13 13
9 8 9 8 7 7 7 7 7 7 8 8 7 7 7 7 7 7 7 6 6 6 6 5 5 5 5 4 4 3 4 3 7 10 8 6 5 5 6 6 6 5 6 7 7 6 7 7 7 11 13 15 15 16 16 16 15 13 13 11 11 11 11 12 12 10 11 13 13 14 15 16 16 14 14 14 12 12 13 12 13 13 14 14 15
8 8 9 8 8 7 7 7 7 9 7 8 7 7 7 6 7 7 6 6 6 5 5 6 5 4 4 4 4 5 5 5 11 11 11 12 7 6 6 6 5 6 6 6 8 9 8 7 7 9 10 11 12 15 16 17 16 17 18 18 15 12 12 14 14 12 11 12 13 14 14 17 18 15 15 13 11 12 13 12 12 12 12 13 16
9 8 8 8 7 8 7 8 9 8 8 7 7 6 6 7 7 6 6 7 5 4 6 4 4 4 4 5 6 6 5 9 13 13 13 14 12 7 5 4 5 5 6 7 7 7 9 9 7 5 6 9 10 11 13 16 17 18 19 19 19 18 16 14 14 14 13 14 14 15 16 16 17 16 14 12 12 12 12 12 12 13 14 14 13
9 9 7 8 8 7 7 9 8 8 7 6 6 6 7 8 7 6 6 4 4 5 4 5 6 5 6 6 6 5 5 11 14 14 14 14 14 10 4 4 5 6 6 7 7 8 8 9 9 7 6 11 11 10 11 12 14 16 17 18 18 17 17 18 18 16 15 15 16 18 16 16 16 16 14 14 13 17 15 14 12 13 13 15 13
8 8 7 8 7 7 7 8 9 7 6 6 6 7 8 8 5 4 3 3 5 5 5 6 5 5 5 5 5 6 6 12 14 14 14 14 14 11 5 5 5 5 6 7 7 8 8 9 10 9 7 6 8 10 10 11 12 12 11 11 11 12 14 15 17 20 19 16 16 18 18 16 18 17 18 16 17 16 15 15 14 15 15 16 16
8 7 8 7 7 7 8 8 9 7 6 6 7 7 6 5 5 4 4 5 6 6 5 4 4 4 5 5 6 6 6 13 13 15 15 15 17 9 7 6 6 6 6 6 6 7 8 8 8 9 9 7 7 10 11 12 13 13 12 13 13 12 11 10 10 11 11 12 14 17 18 18 19 20 19 16 17 17 16 18 18 19 18 16 15
8 7 8 7 7 6 7 8 8 6 6 6 7 6 6 6 6 4 4 3 3 3 3 4 6 6 5 6 6 7 7 12 12 14 16 18 16 8 7 7 7 6 6 5 5 6 6 7 8 9 9 9 11 19 19 16 15 16 17 16 15 13 11 10 15 17 16 15 15 16 16 19 23 22 21 20 18 18 17 17 16 16 16 15 15
8 7 8 6 6 5 5 7 7 7 6 6 7 6 5 5 4 2 4 4 5 6 6 5 5 6 6 6 6 6 6 9 12 15 17 18 11 7 6 6 6 6 6 5 5 5 5 6 8 10 11 11 17 23 24 21 14 16 16 17 15 14 13 10 12 17 18 21 24 26 29 32 33 34 33 35 27 22 17 18 17 14 16 18 17
6 7 7 6 6 5 5 6 7 6 6 6 6 4 3 3 4 3 5 5 7 6 4 5 5 5 5 6 5 6 6 10 14 16 15 17 13 8 7 6 6 6 7 6 6 6 7 12 12 11 12 13 21 26 25 19 14 14 15 16 18 17 15 11 10 11 16 21 22 24 25 27 28 31 34 31 27 22 16 18 19 17 19 18 19
6 7 7 6 6 6 5 6 6 5 6 5 4 5 4 4 3 4 5 4 4 3 4 4 4 4 4 5 7 7 5 7 12 14 15 15 11 6 7 7 8 8 9 10 9 7 8 9 14 15 15 19 27 25 27 22 14 14 15 16 17 18 16 16 17 18 17 16 14 14 14 17 17 15 16 24 25 22 17 17 16 16 18 18 18
6 6 6 6 5 5 4 5 5 5 6 5 5 5 3 4 4 4 4 4 5 4 4 4 5 5 4 4 5 5 6 6 7 14 14 15 16 9 5 8 10 12 11 10 11 11 8 7 9 17 24 25 26 28 27 28 18 15 14 14 16 19 16 17 19 18 18 18 18 17 17 16 14 13 12 12 14 15 15 15 15 14 17 17 16
6 6 6 6 6 5 4 4 6 6 4 5 4 4 4 4 4 4 4 4 4 5 5 5 5 4 4 4 4 5 5 5 5 13 14 15 18 16 7 9 10 11 11 10 9 11 11 10 9 16 24 25 26 28 28 28 26 17 14 14 14 20 23 17 19 23 18 17 15 15 13 13 13 11 11 11 10 11 12 13 13 13 13 14 15
6 6 7 7 5 5 5 5 5 5 4 5 6 6 4 4 4 4 4 4 5 5 4 3 3 3 3 3 3 3 4 6 4 9 15 17 18 19 11 9 12 11 12 11 10 9 10 11 10 18 27 27 27 28 29 27 29 16 15 22 30 30 21 16 15 13 12 14 13 13 15 13 13 11 12 10 12 12 12 12 12 12 12 12 14
6 7 6 7 6 6 5 5 5 4 4 4 5 6 4 5 5 5 4 4 5 4 4 3 2 2 1 1 2 2 3 3 10 8 14 18 17 16 18 14 19 11 9 10 11 11 11 11 13 20 30 30 28 30 29 30 23 14 25 27 28 29 23 13 13 13 13 13 13 13 13 13 13 14 11 12 13 12 11 9 11 12 12 13 13
6 7 6 6 6 5 4 5 4 4 4 4 5 7 6 5 4 4 3 4 4 4 3 3 2 3 4 3 3 4 4 4 8 13 12 17 16 18 19 20 19 12 11 9 10 10 11 12 17 29 29 29 29 28 27 24 16 22 25 26 26 23 14 12 11 11 12 13 13 13 13 13 13 13 13 13 12 12 12 12 12 12 13 12 14
7 7 7 6 5 5 5 5 5 4 4 4 6 5 4 3 4 2 3 3 4 5 4 4 5 4 4 6 5 5 5 4 4 8 15 16 18 20 21 21 20 20 12 9 10 11 18 26 28 27 27 26 27 24 18 19 22 23 23 23 21 12 11 11 12 12 11 10 11 12 12 11 12 13 12 12 13 12 11 11 12 12 12 13 14
8 7 6 6 6 5 7 6 6 5 5 4 4 3 4 3 5 3 4 5 5 6 5 3 4 4 5 4 5 5 5 4 5 6 8 11 13 18 20 19 18 19 18 14 20 24 23 23 24 23 20 20 16 14 14 16 23 24 22 21 13 13 12 12 12 12 11 11 11 11 12 11 11 12 13 12 11 12 12 13 13 12 12 12 12
8 7 7 6 5 5 6 6 5 4 3 3 3 3 2 3 4 4 5 6 4 5 4 4 5 5 5 4 4 5 5 5 6 6 8 9 9 10 10 10 14 14 10 9 12 12 15 16 14 19 17 24 23 20 18 19 16 16 15 14 14 13 13 12 12 12 12 12 12 11 11 11 11 11 12 12 12 12 10 11 11 12 12 11 12
8 8 7 6 5 5 6 5 5 4 3 3 4 4 2 2 5 5 5 3 4 5 4 5 5 4 4 3 2 4 5 5 7 9 10 9 8 8 8 8 9 9 10 11 11 12 11 10 12 9 10 11 13 11 11 12 13 13 12 13 13 14 15 16 14 10 10 10 10 11 12 12 12 12 12 11 11 11 11 11 11 12 11 11 12
7 8 7 6 6 5 5 4 4 5 4 3 2 1 2 2 4 4 1 2 2 5 4 2 2 1 1 3 4 4 5 6 8 12 11 14 12 11 10 10 9 8 12 18 11 8 7 8 9 10 10 10 10 11 12 12 13 14 14 13 13 13 12 10 11 12 11 11 12 11 12 11 12 11 11 12 12 12 11 11 11 11 12 10 11
8 7 6 6 6 6 5 5 4 4 4 4 5 3 2 6 5 5 2 5 8 8 6 2 3 3 5 5 4 4 4 6 12 15 15 15 16 18 17 17 16 13 16 18 10 5 7 8 9 10 10 11 12 12 13 13 14 15 13 16 14 12 11 10 10 11 12 12 12 11 11 11 11 11 11 12 12 11 11 12 12 11 11 10 10
7 7 6 6 6 6 6 6 5 5 4 4 4 6 5 5 9 9 6 5 7 9 10 10 10 9 6 2 4 9 10 12 14 15 16 15 16 16 16 15 17 18 20 13 8 8 8 8 9 9 9 9 10 11 12 13 14 14 14 14 13 15 15 11 10 12 12 11 11 11 11 11 11 11 11 12 12 12 11 10 10 10 10 10 10
9 8 7 6 7 6 5 5 5 5 4 3 4 5 6 6 2 4 5 6 7 9 10 11 10 10 10 9 6 4 10 14 16 16 16 17 16 17 16 14 14 16 16 14 7 8 8 9 9 9 10 9 10 10 11 11 12 12 13 15 15 14 15 14 15 13 12 12 11 12 12 11 11 11 11 11 12 11 11 11 10 10 10 9 9
9 8 7 7 6 6 6 5 5 5 5 5 4 4 6 6 6 1 3 2 5 8 10 11 11 10 11 12 14 13 12 13 16 16 17 17 17 17 17 14 14 15 13 9 7 7 8 8 8 9 10 10 10 10 10 10 11 12 12 13 14 15 15 17 18 13 11 12 13 12 12 12 12 12 11 11 11 11 11 11 10 10 9 9 9
7 8 8 8 7 6 6 5 6 6 5 5 6 6 4 5 4 4 3 1 1 0 3 9 11 11 12 13 14 14 14 15 15 15 16 16 17 18 17 10 12 16 14 8 8 8 7 7 8 9 8 10 10 10 10 10 11 11 12 11 12 13 15 15 13 14 13 13 12 11 12 12 12 12 11 11 10 10 10 10 10 10 10 9 8
7 7 7 6 6 6 6 5 6 6 6 5 6 4 4 4 3 2 2 3 3 2 3 3 7 11 8 8 13 14 14 15 14 15 16 17 18 20 15 8 10 9 8 8 7 7 7 8 8 9 9 9 10 10 11 11 11 11 12 12 12 12 13 13 13 14 14 14 13 12 12 13 12 12 12 12 11 11 11 10 10 9 9 8 7
8 7 6 6 6 6 6 6 6 6 6 6 5 4 5 4 5 3 3 3 3 2 1 3 3 5 10 11 14 14 13 14 14 15 16 17 17 18 10 10 8 8 7 7 6 6 6 6 7 8 8 8 9 9 9 10 10 11 11 11 13 12 13 13 13 13 14 13 14 14 13 12 12 12 12 12 12 11 10 10 10 9 7 6 5
7 6 6 6 6 6 6 6 6 5 5 5 4 3 4 4 4 3 4 4 3 2 2 3 5 5 4 4 8 11 12 11 11 12 13 13 14 9 4 6 6 7 7 7 7 7 6 6 6 7 8 8 8 8 9 9 9 9 11 11 11 11 11 12 13 14 14 13 13 14 14 12 12 12 12 12 12 10 10 10 9 9 7 6 6
6 7 7 7 6 5 6 7 5 5 4 2 3 3 3 4 3 3 5 4 3 3 2 1 2 2 5 6 7 4 7 9 8 7 7 8 7 5 5 4 5 6 7 6 7 7 7 7 6 7 7 8 8 8 8 9 8 9 9 10 10 10 17 14 16 14 13 12 13 14 13 12 12 12 12 12 11 11 11 10 9 8 6 5 4
5 7 10 10 6 6 6 5 5 4 3 3 3 5 6 4 3 4 4 4 3 1 1 0 1 1 1 2 4 5 6 5 5 6 5 5 6 5 3 5 4 5 5 5 7 7 7 7 7 7 7 7 8 8 8 8 9 9 9 9 9 9 11 10 12 13 12 12 13 13 13 13 12 11 11 11 11 11 11 10 9 7 6 5 4
7 7 9 11 7 7 6 6 4 4 6 4 4 4 3 4 4 4 3 3 2 1 1 0 0 1 1 1 2 2 3 4 3 4 5 5 4 5 4 5 5 5 5 6 6 6 7 7 7 7 7 7 8 8 8 9 8 9 9 9 9 10 10 10 10 11 12 12 12 12 12 13 13 12 11 10 10 10 11 9 8 7 5 4 3
7 7 7 8 8 7 6 5 5 5 5 5 4 5 4 4 3 5 3 2 1 1 1 2 3 2 1 2 5 5 1 2 2 3 5 4 5 4 5 5 6 5 6 5 6 6 6 7 7 7 7 7 8 8 9 9 9 8 9 10 9 9 10 9 10 11 12 12 12 11 12 13 13 12 11 11 12 11 9 9 8 6 5 4 3
8 8 7 7 8 6 7 7 7 6 6 6 4 4 5 4 3 3 3 2 3 2 1 2 2 2 3 5 5 6 2 1 2 4 4 4 5 5 6 6 6 5 6 6 5 6 6 7 7 7 7 7 7 7 8 8 9 9 9 9 9 9 9 9 10 11 12 12 12 12 12 13 14 13 12 12 10 10 9 8 7 6 5 4 4
8 7 7 8 7 7 8 7 6 7 5 5 4 4 5 3 2 4 2 3 1 2 1 2 2 1 2 4 4 5 2 1 3 3 4 5 5 6 6 6 6 6 6 6 5 5 6 6 7 7 6 7 7 7 7 8 8 9 9 10 9 9 9 9 10 11 11 11 12 13 14 13 13 12 11 11 10 10 9 9 7 6 5 5 4
7 7 8 7 7 6 6 6 6 6 4 5 4 5 4 3 2 2 2 2 2 2 2 2 2 2 2 3 2 2 2 2 2 4 4 5 5 6 6 7 6 6 6 6 6 5 5 6 7 8 7 6 6 5 6 6 7 7 8 9 10 10 9 9 9 10 11 11 12 12 12 12 13 12 12 11 10 10 9 8 8 6 5 5 4
7 7 7 7 7 7 7 5 6 5 6 6 3 2 4 2 2 2 2 3 4 3 2 2 2 2 3 2 2 2 3 4 5 5 5 6 6 7 6 6 6 7 6 6 6 5 5 6 7 7 9 7 6 6 6 6 6 6 7 8 9 9 8 8 9 9 10 10 10 11 12 12 12 12 11 11 10 9 8 8 7 7 6 5 4
7 7 8 7 8 8 7 7 8 6 6 7 6 5 2 2 3 3 4 3 4 3 3 3 2 2 3 3 3 5 5 4 5 5 7 6 6 7 7 6 7 6 6 6 6 5 6 6 6 7 8 9 9 7 7 6 6 6 7 7 8 9 9 8 8 9 10 10 10 10 11 11 11 11 13 12 10 9 8 8 7 5 5 5 4
8 7 7 8 8 8 8 7 6 6 6 6 4 4 4 4 4 4 5 6 4 6 4 3 2 3 3 3 4 5 6 5 6 6 6 6 6 7 6 6 6 6 7 6 4 6 6 7 6 7 8 8 9 9 8 7 6 7 6 7 7 9 8 8 9 8 9 10 9 9 10 10 11 11 13 11 10 9 9 8 6 6 6 4 4
8 8 7 8 7 7 7 7 7 6 6 6 5 5 5 5 4 5 6 5 4 5 3 3 3 4 4 5 5 5 5 5 6 7 6 6 6 6 6 6 7 7 6 7 5 6 6 6 7 7 8 8 8 9 8 8 7 7 7 7 7 8 12 15 10 9 8 9 8 9 10 10 10 10 10 11 10 10 9 8 7 5 5 4 4
7 8 7 7 7 7 7 7 7 7 7 7 6 6 6 4 5 6 5 5 5 5 4 5 4 4 4 5 6 6 6 7 6 6 6 6 6 6 7 7 6 7 6 7 7 6 7 7 7 7 7 8 8 8 9 8 8 8 7 7 9 16 19 19 13 9 11 10 7 8 8 8 10 10 10 10 10 9 8 8 7 7 5 4 3
7 7 7 7 7 6 6 6 6 6 6 6 6 6 5 6 6 6 6 5 4 5 5 5 5 6 5 6 7 7 5 6 6 6 6 6 6 6 7 6 6 6 6 7 7 6 6 6 7 7 7 7 7 8 8 8 8 8 7 9 14 19 19 19 17 14 11 7 7 6 7 8 9 9 8 8 9 9 9 8 8 7 5 4 3
7 7 7 7 6 6 6 6 6 6 6 6 6 6 6 6 6 6 6 6 6 6 5 6 6 6 6 6 7 6 6 6 6 6 6 7 6 6 6 6 6 6 6 7 7 6 6 6 7 7 7 7 8 8 7 8 7 8 12 18 20 19 18 17 11 11 15 11 5 5 6 8 8 9 8 8 8 8 9 9 8 7 6 5 4
Wind_Direction
102 108 98 91 96 100 93 84 79 81 86 61 80 90 90 93 85 107 82 69 85 76 79 77 74 80 77 74 77 72 66 50 42 54 51 39 34 36 25 33 16 326 313 305 313 303 291 288 291 289 290 287 280 280 272 262 256 250 250 250 250 243 242 256 268 278 285 244 263 277 274 278 274 242 266 267 265 255 242 248 252 252 251 250 252
114 109 113 125 119 104 93 81 98 89 91 90 92 85 83 86 101 80 82 65 83 85 82 78 79 78 74 69 70 64 59 57 47 58 48 34 18 28 24 15 0 327 336 325 328 324 315 308 306 308 298 286 290 288 287 290 278 274 267 259 262 259 238 251 264 274 283 291 253 277 276 268 279 243 249 275 272 265 259 252 251 248 252 253 253
116 113 114 111 103 101 102 98 98 99 95 91 90 90 88 82 83 91 88 76 66 89 93 82 81 79 74 66 58 53 53 51 43 52 41 37 18 359 3 358 333 317 313 294 288 302 313 308 302 305 305 299 291 286 286 282 280 276 275 267 270 271 264 246 268 277 282 285 287 283 284 278 267 283 268 265 272 270 271 269 261 257 249 250 255
110 103 100 97 100 95 95 99 94 94 92 94 92 85 81 76 76 82 84 81 78 58 72 88 76 73 66 53 54 50 40 37 32 39 38 29 360 311 293 275 263 266 272 280 287 302 303 306 297 298 298 295 292 292 287 280 280 278 274 271 267 271 267 256 247 263 279 287 288 282 281 289 282 276 275 274 278 276 269 271 266 262 262 249 248
100 99 101 97 89 92 90 91 94 90 91 87 88 83 77 74 67 79 81 75 74 74 54 55 58 54 58 56 46 35 35 44 30 8 352 350 296 279 278 275 271 270 269 272 284 298 300 288 289 294 297 294 293 292 292 291 285 281 278 277 274 274 274 263 260 256 267 275 284 286 282 273 279 281 279 283 279 274 274 268 272 272 263 256 250
101 102 102 98 93 92 92 91 93 97 97 91 86 82 78 77 80 71 83 85 68 59 62 48 61 60 57 52 56 28 16 27 15 326 307 306 299 286 276 280 281 281 287 295 307 305 292 290 288 290 292 290 290 291 291 289 290 284 282 283 279 279 278 274 267 268 268 272 279 288 290 285 281 276 276 265 280 285 282 276 268 264 269 270 259
101 101 98 101 101 97 96 97 99 98 94 93 87 82 81 81 77 73 67 71 67 61 52 61 36 58 44 40 33 19 10 14 1 325 294 286 283 292 300 304 298 306 314 323 321 311 298 291 292 290 286 284 286 289 294 292 288 283 281 283 283 281 279 276 274 271 271 276 277 276 285 285 282 286 285 266 260 266 281 292 286 272 254 254 270
104 104 104 100 98 98 95 97 94 94 91 88 85 84 80 74 71 67 66 66 67 66 64 62 41 50 36 39 18 30 30 24 6 343 320 330 341 332 329 332 336 338 337 327 318 307 298 293 289 289 285 286 285 287 288 290 291 288 282 280 283 282 278 280 278 274 273 273 274 282 281 286 289 279 283 282 281 277 257 264 278 289 287 260 245
105 104 101 98 96 99 95 88 86 85 85 83 79 75 73 71 69 68 65 63 58 56 56 55 54 43 38 43 34 26 44 26 21 8 9 359 2 352 348 346 347 340 332 325 316 310 304 293 289 288 287 284 282 280 279 277 286 290 288 281 279 283 283 280 278 277 276 276 279 277 281 283 282 290 294 286 280 281 285 271 273 276 283 285 276
105 103 99 99 95 90 89 85 85 83 79 78 76 76 75 74 72 68 62 60 56 51 52 51 54 51 43 34 40 38 28 27 4 9 11 10 360 357 353 352 343 333 325 320 315 312 308 309 303 298 296 295 292 289 287 284 276 268 277 289 286 283 281 284 282 279 279 278 276 283 284 280 283 285 285 284 288 285 282 280 279 282 283 278 277
97 101 98 96 96 95 93 88 85 79 78 79 77 76 74 74 70 66 61 56 54 46 52 49 42 38 41 33 29 30 21 11 4 8 8 9 15 4 356 341 336 327 321 315 313 313 311 308 306 307 305 300 299 297 297 296 294 290 284 278 273 273 286 286 283 284 280 275 279 280 277 279 281 285 283 291 288 285 284 282 280 282 280 287 287
99 95 96 98 96 93 94 92 85 81 79 78 80 79 79 74 68 65 61 54 45 52 53 49 41 30 27 30 30 20 12 5 8 8 7 5 3 1 349 338 325 319 313 312 309 311 311 312 310 307 301 298 301 303 302 300 299 297 296 295 292 285 273 270 282 287 284 284 280 275 280 278 285 287 289 292 292 288 283 284 280 280 282 277 278
99 96 95 95 93 92 94 91 88 83 77 80 80 77 74 68 63 57 57 57 63 62 53 49 40 25 26 25 20 11 9 4 7 5 3 360 355 357 347 336 329 321 318 313 313 314 314 313 315 313 304 303 304 300 300 302 301 299 295 293 290 285 282 276 268 266 276 277 279 281 278 286 286 285 290 293 294 291 290 284 281 276 273 274 274
99 100 95 90 92 92 94 93 88 83 81 78 77 75 71 70 69 65 68 58 61 61 49 49 43 32 24 24 16 10 11 0 2 1 0 357 355 360 348 342 336 327 324 319 318 318 313 313 312 313 312 307 298 302 306 305 304 303 301 296 293 290 288 282 277 270 265 268 273 276 279 279 280 284 288 291 291 290 293 289 290 285 280 275 278
100 100 95 91 91 92 93 91 90 87 82 82 82 77 76 78 68 54 57 55 55 54 51 51 41 37 25 21 22 13 4 357 360 1 1 0 1 4 350 345 339 333 326 318 311 307 307 305 304 304 311 313 307 309 312 312 311 310 308 305 301 301 296 293 287 285 283 277 273 273 277 277 276 277 276 276 272 272 274 277 277 277 277 280 276
102 100 94 89 88 86 95 96 93 92 91 86 83 77 71 66 64 49 61 65 73 84 56 54 38 29 23 21 25 15 358 357 357 5 5 4 2 355 348 340 332 324 319 316 312 309 309 310 314 317 318 318 320 323 323 321 317 314 311 307 302 295 285 277 279 280 281 283 282 282 285 286 288 287 287 286 289 290 284 280 274 270 272 272 273
101 98 95 90 86 86 91 99 96 90 89 84 76 72 69 62 63 59 71 56 52 42 37 32 29 28 20 21 23 12 2 357 1 7 6 360 357 347 338 333 326 322 322 320 317 318 318 323 329 328 321 318 320 322 323 324 314 310 307 304 300 295 291 286 266 270 277 281 283 283 284 285 288 290 292 293 288 288 293 291 285 289 287 286 281
107 103 98 93 88 86 83 90 97 94 89 84 86 83 79 75 66 44 64 52 46 38 29 32 29 30 28 18 22 22 9 0 9 7 3 1 0 348 337 335 327 327 327 329 332 330 326 331 330 322 319 316 321 323 323 323 314 309 307 305 305 303 302 306 300 290 283 280 278 278 279 282 283 285 287 286 286 287 282 280 282 285 282 281 285
112 108 101 93 86 84 84 88 94 100 94 92 92 87 72 63 51 45 52 57 54 44 41 48 36 27 28 22 18 29 18 6 7 8 6 5 3 353 347 338 335 337 336 332 330 327 325 327 327 327 323 320 322 323 323 324 317 313 311 307 304 303 304 309 306 304 305 302 294 288 281 275 276 276 275 275 276 276 272 274 279 279 280 280 279
110 100 97 93 91 86 88 95 95 92 91 84 72 68 61 55 45 53 47 59 55 46 48 51 47 28 18 23 27 29 30 3 2 10 9 8 9 7 349 349 347 339 338 335 327 325 324 320 325 328 326 325 324 323 321 321 318 312 308 303 301 298 302 301 300 299 298 298 297 295 290 288 282 275 269 268 267 265 267 267 267 266 266 268 269
106 104 101 99 94 93 85 87 87 78 77 82 80 71 59 64 56 61 63 52 61 53 49 44 41 27 16 25 44 22 23 5 353 10 11 13 9 8 359 355 344 338 331 330 328 326 323 325 322 326 326 324 322 320 319 317 316 310 305 296 292 297 300 298 298 297 296 292 289 288 287 287 286 278 275 272 271 270 267 266 265 264 266 273 276
108 106 104 95 93 83 81 75 72 78 69 74 79 73 57 64 66 64 64 69 66 64 60 57 60 41 31 40 49 23 6 360 352 5 14 13 9 5 3 351 345 335 329 326 324 321 321 318 320 322 322 322 320 319 319 319 320 317 297 300 307 302 300 295 294 293 289 291 289 289 291 289 287 282 279 280 279 276 272 270 270 270 266 265 269
108 105 99 94 86 83 77 78 75 70 72 76 91 85 65 62 54 56 63 73 80 86 81 79 86 88 104 72 51 15 5 353 10 13 13 8 2 360 356 349 344 341 328 325 325 317 315 311 307 311 321 319 318 320 321 321 319 302 304 309 304 303 301 295 290 289 287 285 289 288 288 290 290 292 294 290 288 289 292 289 287 284 279 276 270
108 102 98 93 91 86 88 84 82 72 79 82 83 81 66 69 68 63 79 89 98 96 87 98 97 68 38 24 21 16 4 10 6 13 9 3 0 356 353 349 347 341 333 318 314 310 310 311 314 317 316 315 316 317 318 315 305 306 308 305 305 305 302 299 296 294 294 296 296 296 298 299 301 303 301 305 307 304 296 289 284 280 279 281 279
110 107 106 108 107 110 95 84 76 71 60 67 82 85 87 106 95 81 88 84 81 69 50 51 54 50 37 21 2 360 357 4 349 3 5 2 360 356 352 349 344 339 329 314 309 308 314 315 313 314 315 316 317 315 312 315 316 316 314 314 315 312 311 310 310 310 306 306 306 305 302 304 304 303 306 303 300 298 297 295 292 288 285 282 280
120 119 119 112 109 108 99 82 69 61 59 60 92 111 123 129 118 103 80 72 62 65 49 53 54 49 44 21 8 353 345 352 355 356 2 1 358 353 348 343 337 335 329 318 318 316 311 310 315 319 319 321 321 324 326 325 325 326 326 327 325 323 320 316 313 313 313 310 309 307 308 308 308 309 306 306 309 309 311 307 307 304 303 300 298
124 121 116 113 103 98 97 96 87 73 70 72 78 90 97 103 98 83 77 68 62 66 56 49 44 40 33 17 355 353 350 2 2 3 5 358 351 341 337 333 333 332 326 315 318 319 320 320 325 330 330 329 331 331 331 331 332 333 333 330 327 325 323 319 318 316 316 317 316 313 311 310 310 311 314 315 311 309 310 306 305 304 307 304 300
130 126 121 116 109 106 108 112 114 110 90 93 90 72 61 89 86 92 84 81 78 51 57 45 40 25 21 360 3 358 7 7 6 6 0 353 343 341 337 335 335 335 331 329 328 324 321 326 332 333 334 336 334 330 334 336 332 329 325 325 326 324 320 316 315 313 311 311 309 309 310 313 314 312 310 309 308 308 310 307 306 303 303 305 300
120 119 119 117 116 117 115 121 126 119 104 80 74 135 118 89 96 80 128 140 122 121 82 49 49 20 24 8 21 11 11 9 9 1 356 354 353 350 348 345 339 336 333 334 331 326 330 340 338 342 340 335 336 341 340 335 332 332 331 331 327 323 322 328 325 322 319 318 315 312 308 310 311 313 312 311 312 314 313 309 307 306 308 305 301
126 128 131 130 130 129 128 122 115 108 105 101 96 50 71 133 127 110 39 54 71 75 100 95 68 74 62 3 22 26 4 357 354 358 357 359 359 355 350 345 347 345 345 350 347 341 351 351 349 345 343 346 347 345 341 341 337 336 336 333 328 320 323 325 320 322 320 315 312 310 311 311 313 316 315 312 311 312 316 315 313 313 309 310 307
135 138 141 142 142 139 134 125 121 112 110 105 107 119 95 77 78 72 72 83 80 75 65 58 51 47 61 53 6 25 12 4 0 359 359 0 1 358 357 353 354 356 356 358 3 8 4 357 353 350 350 345 345 342 340 340 340 336 335 337 335 331 328 324 326 325 318 316 317 316 313 315 316 318 317 318 316 316 316 317 313 313 313 313 310
149 152 148 145 138 138 133 130 126 123 125 116 119 121 121 102 25 28 69 79 83 73 62 54 50 49 46 45 42 15 11 8 2 359 359 358 0 1 3 1 6 8 7 7 13 3 3 358 352 351 348 348 344 342 338 335 333 333 332 333 334 334 332 330 329 322 324 326 326 324 322 322 321 320 320 318 318 316 320 321 322 320 317 314 310
143 146 150 146 144 142 138 138 145 146 146 138 128 120 118 126 121 66 335 32 85 75 59 51 46 45 43 39 33 27 16 6 2 0 359 358 359 3 4 2 10 13 21 21 22 1 359 354 348 346 342 340 337 339 338 335 333 329 329 329 328 330 329 324 320 320 328 332 330 326 327 326 325 321 318 320 322 321 322 322 323 322 318 318 317
148 149 154 155 149 149 152 154 153 155 151 142 142 139 145 143 153 143 123 36 358 55 62 45 40 40 38 35 28 22 16 10 5 2 1 360 2 4 6 2 13 20 25 16 8 358 350 350 345 340 335 335 334 336 336 334 334 328 326 325 324 327 323 320 328 335 334 332 328 326 328 330 327 324 321 320 320 319 320 322 325 325 325 323 323
141 143 142 141 149 153 155 156 156 148 144 142 141 143 149 163 152 142 131 113 85 49 344 345 12 32 38 31 23 20 15 11 8 5 2 2 4 5 2 4 8 5 16 15 8 350 351 346 338 335 332 331 332 334 333 331 330 331 328 324 323 326 325 330 336 338 336 331 328 330 331 329 326 325 324 321 321 323 324 326 326 327 323 327 331
149 146 154 153 155 156 158 160 154 148 146 152 155 156 162 153 149 153 149 135 125 94 354 347 348 351 25 27 21 17 14 11 10 7 4 3 4 8 7 1 358 358 356 352 351 343 339 335 332 326 325 323 323 325 328 327 327 325 322 324 326 327 326 327 332 336 336 332 330 328 327 327 329 326 323 321 321 320 323 324 324 325 328 330 336
160 159 159 165 165 160 160 158 154 158 151 152 147 155 154 157 155 153 139 125 106 91 71 338 346 354 25 35 18 8 5 7 7 7 3 3 3 12 7 354 345 341 341 339 338 331 330 323 323 320 322 321 319 320 322 319 319 318 324 324 321 322 324 326 329 332 332 332 331 329 325 324 327 328 327 324 323 324 324 325 324 326 329 341 343
164 163 165 164 163 162 157 159 169 164 150 144 157 157 156 161 167 151 130 102 99 92 50 11 34 26 358 330 354 354 351 349 357 1 360 360 358 5 358 345 341 335 332 328 332 324 318 317 318 322 318 318 315 318 318 315 316 317 318 319 321 321 327 328 329 329 329 330 332 331 327 324 325 326 328 327 325 325 326 327 328 326 329 344 349
168 166 166 165 165 162 161 160 161 147 156 147 163 156 166 163 147 119 108 107 107 100 135 101 78 29 303 310 341 317 347 345 359 349 346 345 338 337 336 325 318 315 318 320 320 321 315 316 317 318 316 317 315 315 315 313 316 314 315 316 318 321 327 330 329 331 330 330 329 329 327 324 320 323 324 325 326 326 326 326 329 329 331 346 360
168 170 170 168 163 167 162 162 156 151 163 156 168 161 162 154 144 134 131 116 119 146 155 152 213 235 256 305 281 302 336 326 328 330 334 327 326 314 313 306 304 301 305 308 311 312 313 311 314 314 313 313 314 315 315 314 313 313 313 316 319 324 326 327 327 328 328 324 325 324 322 323 319 320 325 330 327 328 327 327 329 336 343 355 2
172 168 167 169 168 160 155 158 159 167 171 167 171 156 165 158 147 139 135 133 145 155 184 199 218 235 221 265 314 322 319 298 325 324 315 303 302 300 299 288 289 291 293 294 297 302 303 306 307 308 308 308 313 314 316 316 314 315 315 316 315 319 322 323 326 326 327 326 325 320 319 319 317 320 327 329 330 329 326 327 331 339 350 0 6
168 166 164 163 169 163 164 171 177 174 165 164 161 165 171 156 153 144 148 153 161 167 203 229 235 234 252 292 305 313 339 348 329 309 300 295 288 288 281 280 274 273 274 278 284 294 299 298 299 300 301 303 307 310 313 315 316 316 315 314 315 317 321 325 327 326 327 326 325 321 316 318 316 318 322 327 329 329 330 332 336 340 347 354 357
166 162 160 161 165 172 173 173 160 156 164 165 180 177 169 159 165 168 156 157 168 184 201 242 265 253 256 275 305 317 345 330 296 290 284 284 283 281 278 276 273 269 270 269 269 270 281 287 292 290 289 290 294 298 304 305 310 311 311 311 312 314 318 323 326 327 327 326 325 323 321 315 316 319 320 327 329 328 331 333 335 342 343 350 354
162 158 163 167 164 165 166 163 164 170 168 175 172 169 164 167 166 165 164 176 185 204 205 222 236 259 269 283 327 339 304 282 275 269 270 275 278 279 277 273 275 275 277 275 277 275 281 289 291 292 285 280 279 283 285 290 297 301 306 307 310 314 316 319 324 325 326 324 323 322 320 315 315 317 320 326 328 331 331 335 335 338 343 346 350
159 163 165 166 169 169 176 173 168 165 166 160 158 173 173 167 177 186 177 192 206 207 213 217 218 227 257 286 289 277 269 265 268 268 271 269 270 270 271 272 271 274 274 276 274 280 281 284 289 293 298 294 287 284 286 288 290 290 296 302 305 307 308 314 318 319 316 317 320 320 318 314 314 315 319 323 327 328 329 334 335 339 341 345 349
164 168 170 171 170 174 174 174 172 170 169 168 172 183 195 179 188 184 193 199 204 212 224 227 224 227 237 254 260 256 259 258 261 257 262 265 263 268 266 270 270 270 268 267 270 271 273 276 284 289 294 296 299 294 291 286 289 290 292 291 295 298 298 302 309 316 317 317 319 320 318 314 313 313 317 321 323 326 325 328 332 338 338 339 345
165 173 174 174 174 176 175 173 164 172 173 175 179 183 196 205 204 208 207 204 208 219 219 227 223 239 241 245 246 255 256 254 256 262 261 263 266 267 271 272 276 277 276 272 264 266 271 275 276 279 284 287 291 294 293 291 288 289 289 291 293 298 300 308 311 312 313 315 316 317 316 314 313 315 319 323 325 326 325 327 330 333 335 340 341
169 172 176 174 170 170 174 170 176 176 177 187 189 193 193 196 204 210 211 221 218 223 223 230 225 234 239 250 245 247 251 252 257 257 263 264 266 267 271 273 275 276 280 283 280 272 269 269 271 275 279 285 287 290 291 293 290 286 287 289 292 294 304 309 309 308 312 312 314 316 315 314 311 313 316 320 321 323 325 326 327 327 331 337 346
169 173 174 176 177 178 176 180 180 184 191 190 193 197 201 201 208 211 216 215 217 218 214 224 237 231 234 242 245 246 247 252 256 260 261 262 263 265 263 265 270 274 280 281 282 278 274 272 270 271 273 279 280 282 287 290 291 291 287 288 291 298 304 310 310 307 314 313 314 321 316 313 313 315 318 320 320 321 321 323 327 325 324 332 348
171 174 175 176 177 184 181 179 182 185 189 191 195 203 205 207 215 217 219 221 228 228 225 223 230 231 229 241 242 245 243 249 252 256 257 261 259 260 263 267 271 273 275 277 280 278 278 273 275 275 277 276 278 278 281 284 286 289 291 287 292 300 305 308 309 310 317 312 318 324 317 312 312 315 317 321 323 323 323 325 326 325 324 324 329
177 175 171 178 178 178 176 183 189 194 192 196 199 203 207 214 219 218 217 220 227 231 229 226 230 233 235 234 236 244 247 251 251 254 255 259 258 262 265 271 276 280 280 279 280 275 275 276 278 280 281 282 284 283 283 281 284 284 289 294 299 303 305 306 306 313 316 313 317 326 323 320 318 319 322 325 325 325 324 321 323 326 325 321 316